GW0058 Weather Reports


time (UTC)temp
C
wind
direction
speed
KPH
gust
KPH
rain 1hr
cm
rain 24hr
cm
rain mn
cm
humidity
%
barometer
mb
20260510120051 17 0 0.0 3.2 0.00 0.00 0.00 91 1012.7
20260510115549 17 309 0.0 1.6 0.00 0.00 0.00 91 1012.6
20260510115049 17 0 0.0 0.0 0.00 0.00 0.00 91 1012.7
20260510114555 18 0 0.0 0.0 0.00 0.00 0.00 90 1012.7
20260510114050 18 0 0.0 1.6 0.00 0.00 0.00 90 1012.7
20260510113548 18 0 0.0 1.6 0.00 0.00 0.00 90 1012.5
20260510113049 18 0 0.0 1.6 0.00 0.00 0.00 90 1012.4
20260510112547 18 0 0.0 4.8 0.00 0.00 0.00 89 1012.5
20260510112048 18 0 0.0 4.8 0.00 0.00 0.00 89 1012.5
20260510111553 18 246 0.0 1.6 0.00 0.00 0.00 89 1012.5
20260510111047 18 0 0.0 0.0 0.00 0.00 0.00 89 1012.4
20260510110547 18 0 0.0 0.0 0.00 0.00 0.00 88 1012.3
20260510110055 18 0 0.0 1.6 0.00 0.00 0.00 87 1012.3
20260510105547 19 0 0.0 6.4 0.00 0.00 0.00 87 1012.3
20260510105050 19 0 0.0 6.4 0.00 0.00 0.00 87 1012.2
20260510104554 19 227 0.0 4.8 0.00 0.00 0.00 87 1012.1
20260510104049 19 207 1.6 4.8 0.00 0.00 0.00 88 1012.1
20260510103548 19 192 1.6 3.2 0.00 0.00 0.00 87 1012.1
20260510103053 19 192 0.0 3.2 0.00 0.00 0.00 87 1012.1
20260510102550 19 192 0.0 3.2 0.00 0.00 0.00 87 1012.3
20260510102051 19 217 0.0 3.2 0.00 0.00 0.00 87 1012.3
20260510101554 19 0 0.0 6.4 0.00 0.00 0.00 87 1012.3
20260510101050 19 0 1.6 6.4 0.00 0.00 0.00 88 1012.2
20260510100549 19 173 3.2 8.0 0.00 0.00 0.00 89 1012.1
20260510100125 18 175 3.2 8.0 0.00 0.00 0.00 91 1012.2
20260510095546 18 0 0.0 3.2 0.00 0.10 0.00 91 1012.3
20260510095046 18 151 0.0 3.2 0.00 0.10 0.00 90 1012.4
20260510094558 18 161 0.0 1.6 0.00 0.10 0.00 90 1012.4
20260510094051 18 0 0.0 0.0 0.00 0.10 0.00 90 1012.5
20260510093549 18 0 0.0 0.0 0.00 0.10 0.00 90 1012.4
20260510093100 18 0 0.0 1.6 0.00 0.10 0.00 89 1012.4
20260510092548 19 0 0.0 1.6 0.00 0.10 0.00 88 1012.4
20260510092050 20 0 0.0 1.6 0.00 0.10 0.00 87 1012.3
20260510091557 20 0 0.0 3.2 0.00 0.10 0.00 87 1012.3
20260510091049 20 226 0.0 4.8 0.00 0.10 0.00 87 1012.3
20260510090550 20 0 1.6 4.8 0.00 0.10 0.00 88 1012.3
20260510090056 20 219 0.0 3.2 0.00 0.10 0.00 89 1012.4
20260510085546 20 0 0.0 1.6 0.00 0.10 0.00 89 1012.3
20260510085048 20 0 0.0 1.6 0.00 0.10 0.00 90 1012.3
20260510084553 20 0 0.0 3.2 0.00 0.10 0.00 90 1012.2
20260510084051 19 221 0.0 3.2 0.00 0.10 0.00 91 1012.1
20260510083547 19 0 0.0 3.2 0.00 0.10 0.00 92 1012.3
20260510083102 19 0 0.0 3.2 0.00 0.10 0.00 92 1012.2
20260510082549 18 0 0.0 0.0 0.00 0.10 0.00 92 1012.3
20260510082049 19 0 0.0 0.0 0.00 0.10 0.00 91 1012.4
20260510081601 19 0 0.0 0.0 0.00 0.10 0.00 91 1012.6
20260510081049 20 0 0.0 0.0 0.00 0.10 0.00 90 1012.6
20260510080550 20 0 0.0 0.0 0.00 0.10 0.00 90 1012.6
20260510080054 20 0 0.0 1.6 0.00 0.10 0.00 91 1012.5
20260510075610 20 0 0.0 1.6 0.00 0.10 0.00 90 1012.4
20260510075049 20 106 0.0 1.6 0.00 0.10 0.00 90 1012.4
20260510074553 20 0 0.0 0.0 0.00 0.10 0.00 90 1012.5
20260510074050 20 0 0.0 0.0 0.00 0.10 0.00 90 1012.5
20260510073547 20 0 0.0 0.0 0.00 0.10 0.00 90 1012.4
20260510073053 20 0 0.0 0.0 0.00 0.10 0.00 90 1012.5
20260510072547 20 0 0.0 0.0 0.00 0.10 0.00 90 1012.5
20260510072050 20 0 0.0 1.6 0.00 0.10 0.00 90 1012.5
20260510071558 20 0 0.0 1.6 0.00 0.10 0.00 89 1012.4
20260510071049 20 0 0.0 1.6 0.00 0.10 0.00 90 1012.5
20260510070549 20 0 0.0 0.0 0.00 0.10 0.00 90 1012.3
20260510070053 20 0 0.0 0.0 0.00 0.10 0.00 90 1012.3
20260510065549 20 0 0.0 0.0 0.00 0.10 0.00 90 1012.3
20260510065050 20 0 0.0 0.0 0.00 0.10 0.00 90 1012.3
20260510064601 20 0 0.0 1.6 0.00 0.10 0.00 91 1012.2
20260510064049 20 0 0.0 1.6 0.00 0.10 0.00 91 1012.1
20260510063547 20 0 0.0 0.0 0.00 0.10 0.00 91 1012.1
20260510063055 20 0 0.0 0.0 0.00 0.10 0.00 90 1012.2
20260510062549 20 0 0.0 0.0 0.00 0.10 0.00 91 1012.2
20260510062050 20 0 0.0 0.0 0.00 0.10 0.00 90 1012.3
20260510061558 20 0 0.0 0.0 0.00 0.10 0.00 90 1012.4
20260510061050 20 0 0.0 0.0 0.00 0.10 0.00 90 1012.3
20260510060550 20 0 0.0 0.0 0.00 0.10 0.00 89 1012.3
20260510060055 20 0 0.0 0.0 0.00 0.10 0.00 89 1012.4
20260510055549 20 0 0.0 0.0 0.00 0.10 0.00 89 1012.4
20260510055049 21 0 0.0 0.0 0.00 0.10 0.00 88 1012.4
20260510054556 21 0 0.0 0.0 0.00 0.10 0.00 87 1012.3
20260510054049 21 0 0.0 1.6 0.00 0.10 0.00 87 1012.3
20260510053547 21 0 0.0 1.6 0.00 0.10 0.00 88 1012.4
20260510053053 21 0 0.0 1.6 0.00 0.10 0.00 88 1012.3
20260510052547 21 0 0.0 1.6 0.00 0.10 0.00 88 1012.3
20260510052050 21 0 0.0 1.6 0.00 0.10 0.00 88 1012.3
20260510051553 21 0 0.0 1.6 0.00 0.10 0.00 89 1012.3
20260510051048 21 0 0.0 0.0 0.00 0.10 0.00 89 1012.2
20260510050550 20 0 0.0 1.6 0.00 0.10 0.00 90 1012.3
20260510050059 20 0 0.0 1.6 0.00 0.10 0.00 90 1012.2
20260510045547 20 0 0.0 0.0 0.00 0.10 0.10 90 1012.1
20260510045047 20 0 0.0 0.0 0.00 0.10 0.10 89 1012.0
20260510044556 21 0 0.0 0.0 0.00 0.10 0.10 89 1012.0
20260510044051 21 0 0.0 0.0 0.00 0.10 0.10 88 1012.0
20260510043549 21 0 0.0 0.0 0.00 0.10 0.10 88 1012.0
20260510043057 21 0 0.0 0.0 0.00 0.10 0.10 88 1012.0
20260510042555 21 0 0.0 0.0 0.00 0.10 0.10 88 1011.9
20260510042049 21 0 0.0 0.0 0.00 0.10 0.10 88 1011.9
20260510041553 21 0 0.0 0.0 0.00 0.10 0.10 87 1011.9
20260510041048 21 0 0.0 1.6 0.00 0.10 0.10 88 1011.8
20260510040550 21 0 0.0 1.6 0.00 0.10 0.10 87 1011.9
20260510040058 21 0 0.0 1.6 0.00 0.10 0.10 87 1011.8
20260510035548 21 0 0.0 0.0 0.00 0.10 0.10 87 1011.9
20260510035050 21 0 0.0 0.0 0.00 0.10 0.10 86 1011.7
20260510034603 21 0 0.0 0.0 0.00 0.10 0.10 86 1011.8
20260510034050 21 0 0.0 0.0 0.00 0.10 0.10 86 1011.7
20260510033548 22 0 0.0 0.0 0.00 0.10 0.10 85 1011.8
20260510033112 22 0 0.0 0.0 0.00 0.10 0.10 84 1011.7
20260510032549 22 0 0.0 0.0 0.00 0.10 0.10 83 1011.8
20260510032057 22 0 0.0 0.0 0.00 0.10 0.10 82 1011.7
20260510031600 22 0 0.0 0.0 0.00 0.10 0.10 82 1011.5
20260510031049 22 0 0.0 0.0 0.00 0.10 0.10 81 1011.5
20260510030554 23 0 0.0 1.6 0.00 0.10 0.10 80 1011.5
20260510030100 23 0 0.0 1.6 0.00 0.10 0.10 81 1011.3
20260510025547 23 0 0.0 1.6 0.00 0.10 0.10 81 1011.3
20260510025049 22 0 0.0 1.6 0.00 0.10 0.10 81 1011.3
20260510024601 22 0 0.0 0.0 0.00 0.10 0.10 81 1011.2
20260510024047 22 0 0.0 0.0 0.00 0.10 0.10 81 1011.2
20260510023549 22 0 0.0 0.0 0.00 0.10 0.10 79 1011.1
20260510023054 22 0 0.0 0.0 0.00 0.10 0.10 79 1011.1
20260510022547 23 0 0.0 0.0 0.00 0.10 0.10 78 1011.1
20260510022049 23 0 0.0 0.0 0.00 0.10 0.10 77 1011.0
20260510021555 23 0 0.0 0.0 0.00 0.10 0.10 76 1010.9
20260510021049 23 0 0.0 0.0 0.00 0.10 0.10 75 1010.8
20260510020550 24 0 0.0 1.6 0.00 0.10 0.10 74 1010.8
20260510020053 25 0 0.0 1.6 0.00 0.10 0.10 73 1010.8
20260510015547 25 0 0.0 1.6 0.00 0.10 0.10 72 1010.7
20260510015048 25 0 0.0 1.6 0.00 0.10 0.10 72 1010.6
20260510014557 25 0 0.0 1.6 0.00 0.10 0.10 70 1010.5
20260510014049 25 0 0.0 4.8 0.00 0.10 0.10 70 1010.5
20260510013551 25 0 0.0 4.8 0.00 0.10 0.10 69 1010.4
20260510013054 26 0 0.0 4.8 0.00 0.10 0.10 69 1010.3
20260510012548 26 0 0.0 6.4 0.00 0.10 0.10 68 1010.3
20260510012141 26 0 0.0 6.4 0.00 0.10 0.10 68 1010.3
20260510012047 26 0 0.0 6.4 0.00 0.10 0.10 68 1010.3
20260510011556 26 117 1.6 6.4 0.00 0.10 0.10 67 1010.2
20260510011050 26 0 0.0 4.8 0.00 0.10 0.10 66 1010.2
20260510010551 27 76 1.6 6.4 0.00 0.10 0.10 65 1010.2
20260510010054 27 136 1.6 11.3 0.00 0.10 0.10 63 1010.1
20260510005548 27 109 1.6 11.3 0.00 0.10 0.10 61 1010.0
20260510005047 27 138 1.6 11.3 0.00 0.10 0.10 59 1009.9
20260510004555 27 149 1.6 6.4 0.00 0.10 0.10 55 1009.9
20260510004050 27 147 1.6 6.4 0.00 0.10 0.10 53 1009.8
20260510003548 28 88 3.2 6.4 0.00 0.10 0.10 51 1009.8
20260510003110 28 0 0.0 4.8 0.00 0.10 0.10 49 1009.7
20260510002549 28 69 0.0 4.8 0.00 0.10 0.10 48 1009.7
20260510002049 28 52 0.0 4.8 0.00 0.10 0.10 47 1009.6
20260510001552 28 0 0.0 3.2 0.00 0.10 0.10 46 1009.6
20260510001047 29 159 0.0 3.2 0.00 0.10 0.10 47 1009.5
20260510000553 29 0 0.0 6.4 0.00 0.10 0.10 47 1009.5
20260510000055 29 0 1.6 6.4 0.00 0.10 0.10 46 1009.4
20260509235549 29 86 0.0 6.4 0.00 0.10 0.10 46 1009.5
20260509235047 29 160 0.0 8.0 0.00 0.10 0.10 45 1009.5
20260509234604 29 0 1.6 8.0 0.00 0.10 0.10 44 1009.4
20260509234049 30 0 0.0 6.4 0.00 0.10 0.10 47 1009.4
20260509233550 30 173 1.6 6.4 0.00 0.10 0.10 45 1009.3
20260509233053 30 48 1.6 9.7 0.00 0.10 0.10 46 1009.3
20260509232547 30 98 1.6 9.7 0.00 0.10 0.10 47 1009.3
20260509232048 30 104 1.6 8.0 0.00 0.10 0.10 46 1009.3
20260509231556 30 35 1.6 11.3 0.00 0.10 0.10 47 1009.3
20260509231049 30 133 3.2 11.3 0.00 0.10 0.10 46 1009.2
20260509230549 30 162 4.8 11.3 0.00 0.10 0.10 46 1009.1
20260509230103 30 50 3.2 11.3 0.00 0.10 0.10 48 1009.1
20260509225550 30 154 4.8 11.3 0.00 0.10 0.10 47 1009.1
20260509225051 30 34 3.2 11.3 0.00 0.10 0.10 48 1009.1
20260509224553 30 133 3.2 11.3 0.00 0.10 0.10 49 1009.2
20260509224050 30 174 3.2 16.1 0.00 0.10 0.10 51 1009.2
20260509223550 30 146 8.0 16.1 0.00 0.10 0.10 52 1009.2
20260509223055 30 183 8.0 16.1 0.00 0.10 0.10 57 1009.2
20260509222546 30 137 4.8 17.7 0.00 0.10 0.10 57 1009.2
20260509222050 30 147 8.0 17.7 0.00 0.10 0.10 54 1009.2
20260509221554 30 149 4.8 16.1 0.00 0.10 0.10 54 1009.2
20260509221050 30 175 4.8 14.5 0.00 0.10 0.10 53 1009.2
20260509220549 30 185 4.8 11.3 0.00 0.10 0.10 53 1009.1
20260509220055 30 346 3.2 11.3 0.00 0.10 0.10 54 1008.9
20260509215553 29 149 3.2 12.9 0.00 0.10 0.10 55 1009.0
20260509215049 28 216 4.8 12.9 0.00 0.10 0.10 56 1009.0
20260509214554 27 0 1.6 11.3 0.00 0.10 0.10 59 1009.2
20260509214049 27 94 3.2 12.9 0.00 0.10 0.10 57 1009.4
20260509213546 27 57 4.8 24.1 0.00 0.10 0.10 56 1009.4
20260509213101 28 96 3.2 24.1 0.00 0.10 0.10 54 1009.5
20260509212549 30 54 6.4 22.5 0.00 0.10 0.10 50 1009.6
20260509212049 31 0 0.0 6.4 0.00 0.10 0.10 51 1009.4
20260509211556 31 200 0.0 12.9 0.00 0.10 0.10 46 1009.4
20260509211049 31 338 1.6 12.9 0.00 0.10 0.10 45 1009.3
20260509210548 32 294 1.6 9.7 0.00 0.10 0.10 44 1009.4
20260509210058 32 250 4.8 9.7 0.00 0.10 0.10 45 1009.4
20260509205549 32 216 1.6 9.7 0.00 0.10 0.10 46 1009.4
20260509205049 32 175 4.8 11.3 0.00 0.10 0.10 44 1009.5
20260509204555 32 242 4.8 11.3 0.00 0.10 0.10 42 1009.6
20260509204049 31 173 0.0 4.8 0.00 0.10 0.10 48 1009.7
20260509203548 30 0 1.6 9.7 0.00 0.10 0.10 52 1009.8
20260509203052 31 0 3.2 11.3 0.00 0.10 0.10 49 1009.8
20260509202548 31 279 3.2 11.3 0.00 0.10 0.10 47 1010.0
20260509202048 31 215 3.2 16.1 0.00 0.10 0.10 49 1009.9
20260509201553 31 219 1.6 16.1 0.00 0.10 0.10 46 1010.0
20260509201052 31 275 4.8 16.1 0.00 0.10 0.10 48 1010.1
20260509200551 31 303 1.6 12.9 0.00 0.10 0.10 54 1010.1
20260509200057 30 240 4.8 12.9 0.00 0.10 0.10 54 1010.4
20260509195549 31 132 3.2 12.9 0.00 0.10 0.10 49 1010.4
20260509195050 31 188 3.2 12.9 0.00 0.10 0.10 51 1010.5
20260509194553 31 250 3.2 14.5 0.00 0.10 0.10 56 1010.6
20260509194050 30 0 1.6 14.5 0.00 0.10 0.10 55 1010.5
20260509193550 30 333 1.6 9.7 0.00 0.10 0.10 57 1010.7
20260509193051 30 0 1.6 9.7 0.00 0.10 0.10 57 1010.7
20260509192548 30 258 3.2 9.7 0.00 0.10 0.10 59 1010.8
20260509192049 31 167 3.2 9.7 0.00 0.10 0.10 56 1010.8
20260509191553 30 210 4.8 9.7 0.00 0.10 0.10 58 1010.8
20260509191052 30 184 4.8 9.7 0.00 0.10 0.10 60 1010.8
20260509190554 30 318 3.2 11.3 0.00 0.10 0.10 57 1011.0
20260509190055 30 193 1.6 14.5 0.00 0.10 0.10 62 1011.3
20260509185550 29 273 3.2 14.5 0.00 0.10 0.10 62 1011.4
20260509185050 30 238 3.2 12.9 0.00 0.10 0.10 61 1011.5
20260509184552 30 296 3.2 8.0 0.00 0.10 0.10 65 1011.6
20260509184049 29 260 3.2 11.3 0.00 0.10 0.10 65 1011.6
20260509183554 28 0 0.0 11.3 0.00 0.10 0.10 61 1011.7
20260509183133 30 263 3.2 11.3 0.00 0.10 0.10 61 1011.7
20260509182549 29 274 3.2 8.0 0.00 0.10 0.10 62 1011.7
20260509182052 28 0 0.0 11.3 0.00 0.10 0.10 66 1011.7
20260509181607 28 132 3.2 11.3 0.00 0.10 0.10 65 1011.8
20260509181048 28 103 3.2 11.3 0.00 0.10 0.10 63 1011.8
20260509180546 29 188 3.2 11.3 0.00 0.10 0.10 65 1011.9
20260509180058 29 155 3.2 11.3 0.00 0.10 0.10 66 1012.0
20260509175548 28 281 3.2 11.3 0.00 0.10 0.10 66 1011.9
20260509175050 28 201 3.2 9.7 0.00 0.10 0.10 68 1011.9
20260509174557 28 194 1.6 12.9 0.00 0.10 0.10 67 1012.0
20260509174050 28 221 4.8 12.9 0.00 0.10 0.10 66 1012.1
20260509173552 28 179 4.8 14.5 0.00 0.10 0.10 73 1012.2
20260509173102 28 320 1.6 14.5 0.00 0.10 0.10 69 1012.1
20260509172548 28 248 4.8 11.3 0.00 0.10 0.10 75 1012.2
20260509172051 27 197 4.8 9.7 0.00 0.10 0.10 73 1012.3
20260509171558 27 227 3.2 11.3 0.00 0.10 0.10 74 1012.3
20260509171050 27 150 3.2 11.3 0.00 0.10 0.10 72 1012.3
20260509170549 27 215 3.2 9.7 0.00 0.10 0.10 75 1012.5
20260509170056 27 146 4.8 11.3 0.00 0.10 0.10 77 1012.4
20260509165550 27 229 3.2 11.3 0.00 0.10 0.10 77 1012.4
20260509165050 26 198 3.2 9.7 0.00 0.10 0.10 78 1012.5
20260509164600 26 297 4.8 9.7 0.00 0.10 0.10 80 1012.5
20260509164052 26 236 3.2 11.3 0.00 0.10 0.10 82 1012.5
20260509163548 26 277 4.8 16.1 0.00 0.10 0.10 79 1012.5
20260509163100 26 157 6.4 16.1 0.00 0.10 0.10 80 1012.6
20260509162548 25 262 4.8 12.9 0.00 0.10 0.10 83 1012.5
20260509162048 25 224 6.4 12.9 0.00 0.10 0.10 80 1012.5
20260509161552 26 175 4.8 12.9 0.00 0.10 0.10 84 1012.4
20260509161048 25 234 3.2 14.5 0.00 0.10 0.10 84 1012.5
20260509160550 25 253 3.2 14.5 0.00 0.10 0.10 83 1012.7
20260509160057 25 225 4.8 11.3 0.00 0.10 0.10 86 1012.5
20260509155550 25 199 3.2 8.0 0.00 0.10 0.10 85 1012.5
20260509155049 25 0 1.6 4.8 0.00 0.10 0.10 89 1012.9
20260509154558 24 296 1.6 8.0 0.00 0.10 0.10 89 1012.9
20260509154050 23 0 1.6 8.0 0.00 0.10 0.10 91 1012.8
20260509153548 23 225 3.2 8.0 0.00 0.10 0.10 91 1012.8
20260509153053 23 0 1.6 8.0 0.00 0.10 0.10 92 1012.9
20260509152551 23 232 3.2 8.0 0.00 0.10 0.10 93 1012.9
20260509152050 23 150 1.6 9.7 0.00 0.10 0.10 95 1012.8
20260509151550 22 187 3.2 9.7 0.00 0.10 0.10 94 1012.7
20260509151049 22 194 1.6 9.7 0.00 0.10 0.10 95 1012.8
20260509150549 22 150 0.0 9.7 0.00 0.10 0.10 95 1012.8
20260509150051 22 173 3.2 9.7 0.00 0.10 0.10 95 1012.7
20260509145549 22 142 1.6 12.9 0.00 0.10 0.10 95 1012.7
20260509145049 22 151 3.2 12.9 0.00 0.10 0.10 95 1012.5
20260509144556 22 137 1.6 6.4 0.00 0.10 0.10 95 1012.4
20260509144049 22 0 1.6 11.3 0.00 0.10 0.10 96 1012.6
20260509143549 22 146 1.6 14.5 0.00 0.10 0.10 95 1012.4
20260509143054 21 147 6.4 14.5 0.00 0.10 0.10 95 1012.2
20260509142548 21 130 1.6 6.4 0.00 0.10 0.10 96 1012.1
20260509142048 21 0 0.0 1.6 0.00 0.10 0.10 96 1012.4
20260509141600 21 20 0.0 0.0 0.00 0.10 0.10 96 1012.4
20260509141050 21 0 0.0 0.0 0.00 0.10 0.10 95 1012.4
20260509140548 21 0 0.0 0.0 0.00 0.10 0.10 96 1012.3
20260509140059 21 0 0.0 1.6 0.00 0.10 0.10 96 1012.3
20260509135549 21 0 0.0 1.6 0.00 0.10 0.10 95 1012.4
20260509135047 21 0 0.0 0.0 0.00 0.10 0.10 96 1012.4
20260509134558 21 0 0.0 1.6 0.00 0.10 0.10 96 1012.3
20260509134048 21 0 0.0 1.6 0.00 0.10 0.10 96 1012.3
20260509133550 21 0 0.0 1.6 0.00 0.10 0.10 96 1012.3
20260509133049 21 0 0.0 3.2 0.00 0.10 0.10 96 1012.4
20260509132551 21 0 0.0 3.2 0.00 0.10 0.10 96 1012.3
20260509132052 21 0 0.0 3.2 0.00 0.10 0.10 96 1012.3
20260509131551 21 0 0.0 1.6 0.00 0.10 0.10 95 1012.2
20260509131049 21 0 0.0 1.6 0.00 0.10 0.10 96 1012.4
20260509130549 21 130 0.0 1.6 0.00 0.10 0.10 96 1012.1
20260509130053 21 158 0.0 1.6 0.00 0.10 0.10 96 1012.1
20260509125549 21 0 0.0 1.6 0.00 0.10 0.10 96 1012.3
20260509125106 21 0 0.0 3.2 0.00 0.10 0.10 95 1012.2
20260509124608 21 158 0.0 3.2 0.00 0.10 0.10 96 1012.1
20260509124048 21 0 0.0 4.8 0.00 0.10 0.10 96 1012.1
20260509123552 21 0 0.0 4.8 0.00 0.10 0.10 96 1011.9
20260509123105 21 149 0.0 6.4 0.00 0.10 0.10 95 1011.8
20260509122547 21 0 1.6 6.4 0.00 0.10 0.10 95 1011.8
20260509122050 21 0 0.0 3.2 0.00 0.10 0.10 95 1011.8
20260509121605 21 0 0.0 8.0 0.00 0.10 0.10 95 1011.7
20260509121053 21 344 0.0 8.0 0.00 0.10 0.10 95 1011.6
20260509120550 21 311 0.0 8.0 0.00 0.10 0.10 95 1011.7